2018-102G (43837 NORAD) Tracking and Keplerian Element Data

This shows tracking and keplerian element data for the satellite.

Feedback or suggestion? Click here.




ElementValue
Catalog43837
Name2018-102G
Epoch Orbit452
Epoch Day6.20056358
Epoch Year2019
RAAN83.4579
Inclination97.6249
Eccentricity0.0015803
Argument of Perigee172.9386
Mean Anonmoly210.4254
Mean Motion15.08781517
Decay Rate8.86E-06
L11 43837U 18102G 19006.20056358 .00000886 00000-0 60335-4 0 9995
L22 43837 97.6249 83.4579 0015803 172.9386 210.4254 15.08781517 4525

Live tracking and technical data element details for 2018-102G (NORAD 43837). 2018-102G can be tracked NOW for your location showing map with azimuth and elevation plus other details from your city location.

Track the satellite on the map from your city or location and see movement details for azimuth, elevation, latitude, longitude, range, height, and movement on the map or in text.







IsCatalogInMostPopularTable: catalog: 43837, numindb: 31
Update: records affected: 1



GetName: 43837 2018-102G

Hit Count: updated at: Wed, 23 Jan 2019 02:47:07 GMT